This demonstration page uses our WeatherBlox Daily Observations layout. Learn more.

Left ArrowRight Arrow

34.16533, -84.80231

Hourly Observations for July 23, 2016

Temp ( °F °C ) Dew Point ( °F °C ) Humidity (%) Winds ( mph kmh ) Pressure ( in mb ) Visibility ( mi km ) Precip ( " mm )
12:53 am 00:53 Partly Cloudy 76 24.4 72 22.2 88 88 Calm 30.01 1016 10 16 0.00 0.00
1:53 am 01:53 Clear 75 23.9 72 22.2 90 90 Calm 30.00 1016 10 16 0.00 0.00
2:53 am 02:53 Mostly Clear 75 23.9 72 22.2 90 90 Calm 29.98 1015 10 16 0.00 0.00
3:53 am 03:53 Mostly Clear 75 23.9 72 22.2 90 90 Calm 29.98 1015 10 16 0.00 0.00
4:53 am 04:53 Mostly Cloudy 75 23.9 73 22.8 94 94 Calm 29.98 1015 10 16 0.00 0.00
6:53 am 06:53 Sunny 74 23.3 72 22.2 94 94 Calm 29.99 1016 8 13 0.00 0.00
7:53 am 07:53 Sunny 77 25 73 22.8 88 88 Calm 30.01 1016 10 16 0.00 0.00
8:53 am 08:53 Sunny 79 26.1 73 22.8 82 82 Calm 30.01 1016 10 16 0.00 0.00
9:53 am 09:53 Sunny 82 27.8 74 23.3 77 77 Calm 30.01 1016 10 16 0.00 0.00
10:53 am 10:53 Sunny 86 30 74 23.3 67 67 Calm 30.01 1016 10 16 0.00 0.00
11:53 am 11:53 Sunny 89 31.7 73 22.8 59 59 VRB 3 6 30.01 1016 10 16 0.00 0.00
12:00 pm 12:00 Sunny with Nearby Thunderstorms 90 32.2 74 23.3 59 59 VRB 5 7 30.00 1016 10 16 0.00 0.00
12:50 pm 12:50 Mostly Cloudy with Thunderstorms 88 31 73 23 62 62 S 7 11 30.00 1016 10 16 0.00 0.00
12:53 pm 12:53 Mostly Cloudy with Thunderstorms 86 30 72 22.2 63 63 SSW 12 19 29.99 1016 10 16 0.00 0.00
1:05 pm 13:05 Cloudy with Nearby Thunderstorms 82 27.8 68 20 63 63 S 12 19 30.00 1016 10 16 0.00 0.00
1:11 pm 13:11 Cloudy with Strong Thunderstorms 78 25.6 69 20.6 74 74 S 17 28 30.00 1016 3 4 0.09 2.29
1:27 pm 13:27 Mostly Cloudy with Thunderstorms 75 23.9 71 21.7 88 88 SSE 12 19 30.03 1017 9 14 0.12 3.05
1:37 pm 13:37 Partly Cloudy with Thunderstorms 76 24.4 72 22.2 88 88 SSE 10 17 30.03 1017 N/A 0.12 3.05
1:53 pm 13:53 Partly Cloudy with Nearby Thunderstorms 76 24.4 72 22.2 88 88 SE 7 11 30.01 1016 10 16 0.12 3.05
2:32 pm 14:32 Sunny 80 26.7 73 22.8 79 79 E 6 9 30.00 1016 10 16 0.00 0.00
2:53 pm 14:53 Sunny 84 28.9 72 22.2 67 67 ENE 7 11 29.98 1015 10 16 0.00 0.00
3:53 pm 15:53 Partly Cloudy with Light Rain 78 25.6 73 22.8 85 85 E 3 6 30.01 1016 10 16 0.00 0.03
4:53 pm 16:53 Partly Cloudy 76 24.4 73 22.8 91 91 NE 6 9 29.96 1015 9 14 0.02 0.51
5:53 pm 17:53 Cloudy 76 24.4 74 23.3 94 94 VRB 3 6 29.96 1015 8 13 0.01 0.25
6:53 pm 18:53 Sunny 77 25 74 23.3 90 90 SE 3 6 29.96 1015 10 16 0.00 0.00
7:53 pm 19:53 Sunny 78 25.6 74 23.3 87 87 Calm 29.98 1015 10 16 0.00 0.00
8:53 pm 20:53 Clear 77 25 75 23.9 94 94 Calm 29.99 1016 10 16 0.00 0.00
9:53 pm 21:53 Clear 75 23.9 74 23.3 96 96 Calm 29.98 1015 9 14 0.00 0.00
10:53 pm 22:53 Clear 75 23.9 73 22.8 94 94 Calm 29.99 1016 7 11 0.00 0.00
11:53 pm 23:53 Clear with Mist and Fog 74 23.3 73 22.8 97 97 Calm 30.01 1016 5 8 0.00 0.00

Powered by AerisWeather